CW4957 Weather Reports


Display with metric or nautical units.
time (UTC)temp
F
wind
direction
speed
MPH
gust
MPH
rain 1hr
in
rain 24hr
in
rain mn
in
humidity
%
barometer
mb
20260507115807 49 360 1.0 4.0 0.00 0.18 0.00 68 1008.4
20260507115302 49 333 1.0 6.0 0.00 0.18 0.00 72 1008.3
20260507114805 49 261 1.0 6.0 0.00 0.18 0.00 74 1008.3
20260507114300 49 251 1.0 5.0 0.00 0.18 0.00 78 1008.3
20260507113814 49 257 1.0 3.0 0.00 0.18 0.00 79 1008.0
20260507113330 49 211 1.0 3.0 0.00 0.18 0.00 80 1008.0
20260507112804 49 349 1.0 3.0 0.00 0.18 0.00 81 1008.0
20260507112257 49 202 0.0 4.0 0.00 0.18 0.00 81 1008.0
20260507111811 49 202 1.0 5.0 0.00 0.18 0.00 81 1008.0
20260507111253 49 221 2.0 5.0 0.00 0.18 0.00 82 1008.0
20260507110827 48 355 0.0 2.0 0.00 0.18 0.00 83 1007.8
20260507110258 48 355 0.0 3.0 0.00 0.18 0.00 84 1007.8
20260507105806 48 325 0.0 3.0 0.00 0.18 0.00 84 1007.8
20260507105257 48 236 0.0 3.0 0.00 0.18 0.00 84 1007.5
20260507104814 48 217 0.0 0.0 0.00 0.18 0.00 84 1007.5
20260507104312 48 217 0.0 2.0 0.00 0.18 0.00 84 1007.5
20260507103814 48 217 0.0 2.0 0.00 0.18 0.00 84 1007.4
20260507103306 48 262 1.0 2.0 0.00 0.18 0.00 85 1007.4
20260507102825 48 344 0.0 1.0 0.00 0.18 0.00 85 1007.4
20260507102327 48 344 0.0 1.0 0.00 0.18 0.00 85 1007.2
20260507101759 48 344 0.0 1.0 0.00 0.18 0.00 85 1007.2
20260507101310 48 344 0.0 1.0 0.00 0.18 0.00 85 1007.2
20260507100804 48 344 0.0 1.0 0.00 0.18 0.00 84 1006.9
20260507100258 48 344 0.0 2.0 0.00 0.18 0.00 84 1006.9
20260507095759 48 344 0.0 2.0 0.00 0.18 0.00 84 1006.9
20260507095256 48 344 0.0 1.0 0.00 0.18 0.00 85 1007.1
20260507094830 49 344 0.0 1.0 0.00 0.18 0.00 84 1007.1
20260507094308 49 32 0.0 1.0 0.00 0.18 0.00 84 1007.1
20260507093804 49 32 0.0 2.0 0.00 0.18 0.00 84 1007.1
20260507093301 49 32 1.0 2.0 0.00 0.18 0.00 85 1007.1
20260507092756 49 32 1.0 2.0 0.00 0.18 0.00 85 1007.1
20260507092309 49 32 0.0 3.0 0.00 0.18 0.00 86 1007.4
20260507091804 49 32 0.0 3.0 0.00 0.18 0.00 86 1007.4
20260507091301 49 173 1.0 3.0 0.00 0.18 0.00 87 1007.4
20260507090816 49 173 0.0 1.0 0.00 0.18 0.00 87 1007.5
20260507090303 49 173 0.0 2.0 0.00 0.18 0.00 87 1007.5
20260507085805 49 263 0.0 1.0 0.00 0.18 0.00 87 1007.5
20260507085318 49 264 0.0 2.0 0.00 0.18 0.00 87 1007.4
20260507084823 49 264 0.0 2.0 0.00 0.18 0.00 87 1007.4
20260507084258 49 263 0.0 2.0 0.00 0.18 0.00 87 1007.4
20260507083756 49 234 0.0 0.0 0.00 0.18 0.00 87 1007.7
20260507083313 49 233 0.0 0.0 0.00 0.18 0.00 87 1007.7
20260507082804 49 234 0.0 1.0 0.00 0.18 0.00 87 1007.7
20260507082257 50 233 0.0 1.0 0.00 0.18 0.00 87 1007.7
20260507081755 50 233 0.0 1.0 0.00 0.18 0.00 87 1007.7
20260507081333 50 234 0.0 1.0 0.00 0.18 0.00 88 1007.7
20260507080824 50 233 0.0 1.0 0.00 0.18 0.00 88 1007.8
20260507080314 50 234 0.0 3.0 0.00 0.18 0.00 88 1007.8
20260507075811 50 233 1.0 3.0 0.00 0.18 0.00 88 1007.8
20260507075325 50 329 0.0 0.0 0.00 0.18 0.00 88 1007.3
20260507074821 50 329 0.0 0.0 0.00 0.18 0.00 88 1007.3
20260507074314 50 329 0.0 2.0 0.00 0.18 0.00 88 1007.3
20260507073827 50 329 0.0 2.0 0.00 0.18 0.00 88 1006.8
20260507073304 50 329 0.0 1.0 0.00 0.18 0.00 88 1006.8
20260507072757 50 329 0.0 1.0 0.00 0.18 0.00 88 1006.8
20260507072308 50 329 0.0 2.0 0.00 0.18 0.00 88 1006.9
20260507071804 50 329 0.0 2.0 0.00 0.18 0.00 88 1006.9
20260507071301 50 329 0.0 1.0 0.00 0.18 0.00 89 1006.9
20260507070757 50 329 0.0 0.0 0.00 0.18 0.00 89 1007.1
20260507070307 50 329 0.0 0.0 0.00 0.18 0.00 89 1007.1
20260507065829 50 329 0.0 0.0 0.00 0.18 0.00 89 1007.1
20260507065321 50 329 0.0 0.0 0.00 0.18 0.00 90 1007.0
20260507064753 50 329 0.0 1.0 0.00 0.18 0.00 90 1007.0
20260507064308 50 329 0.0 1.0 0.00 0.18 0.00 90 1007.0
20260507063804 50 329 0.0 1.0 0.00 0.18 0.00 90 1006.8
20260507063312 50 329 0.0 2.0 0.00 0.18 0.00 91 1006.8
20260507062806 50 329 0.0 2.0 0.00 0.18 0.00 91 1006.8
20260507062306 50 338 0.0 1.0 0.00 0.18 0.00 91 1006.7
20260507061759 50 338 0.0 1.0 0.00 0.18 0.00 91 1006.7
20260507061313 50 338 0.0 1.0 0.00 0.18 0.00 91 1006.7
20260507060802 50 338 0.0 1.0 0.00 0.18 0.00 91 1006.8
20260507060310 50 338 0.0 1.0 0.00 0.18 0.00 91 1006.8
20260507055801 51 338 0.0 1.0 0.00 0.18 0.00 92 1006.8
20260507055300 51 338 0.0 1.0 0.00 0.18 0.00 92 1006.8
20260507054756 51 338 0.0 1.0 0.00 0.18 0.00 92 1006.8
20260507054308 51 338 0.0 0.0 0.00 0.18 0.00 92 1006.8
20260507053824 51 338 0.0 0.0 0.00 0.18 0.00 92 1007.4
20260507053259 51 338 0.0 0.0 0.00 0.18 0.00 92 1007.4
20260507052755 51 338 0.0 0.0 0.00 0.18 0.00 92 1007.4
20260507052306 51 338 0.0 0.0 0.00 0.18 0.00 92 1007.4
20260507051759 51 338 0.0 0.0 0.00 0.18 0.00 92 1007.4
20260507051257 51 338 0.0 0.0 0.00 0.18 0.00 92 1007.4
20260507050814 51 338 0.0 0.0 0.00 0.18 0.00 92 1007.8
20260507050323 51 338 0.0 0.0 0.00 0.18 0.00 92 1007.8
20260507045758 51 338 0.0 1.0 0.00 0.18 0.00 92 1007.8
20260507045252 51 338 0.0 1.0 0.00 0.18 0.00 91 1007.6
20260507044755 51 339 0.0 0.0 0.00 0.18 0.00 91 1007.6
20260507044255 51 338 0.0 0.0 0.00 0.18 0.00 91 1007.6
20260507043757 51 338 0.0 0.0 0.00 0.18 0.00 91 1007.3
20260507043314 51 339 0.0 0.0 0.00 0.18 0.00 91 1007.3
20260507042813 51 339 0.0 1.0 0.00 0.18 0.00 91 1007.3
20260507042254 51 339 0.0 1.0 0.00 0.18 0.00 91 1007.1
20260507041802 51 339 0.0 0.0 0.00 0.18 0.00 92 1007.1
20260507041259 51 339 0.0 0.0 0.00 0.18 0.00 91 1007.1
20260507040813 51 339 0.0 0.0 0.00 0.18 0.00 91 1007.0
20260507040301 52 339 0.0 0.0 0.00 0.18 0.00 91 1007.0
20260507035817 52 339 0.0 0.0 0.00 0.18 0.18 91 1007.0
20260507035311 52 339 0.0 1.0 0.00 0.18 0.18 91 1007.2
20260507034805 52 339 0.0 1.0 0.00 0.18 0.18 91 1007.2
20260507034303 52 339 0.0 1.0 0.00 0.18 0.18 91 1007.2
20260507033800 52 339 0.0 1.0 0.00 0.18 0.18 91 1007.3
20260507033330 52 339 0.0 0.0 0.00 0.18 0.18 91 1007.3
20260507032805 52 339 0.0 1.0 0.00 0.18 0.18 91 1007.3
20260507032323 53 339 0.0 1.0 0.00 0.18 0.18 91 1007.2
20260507031821 53 339 0.0 0.0 0.00 0.18 0.18 91 1007.2
20260507031315 53 339 0.0 0.0 0.00 0.18 0.18 91 1007.2
20260507030805 53 339 0.0 1.0 0.00 0.18 0.18 91 1007.1
20260507030255 53 339 0.0 1.0 0.00 0.18 0.18 92 1007.1
20260507025825 54 339 0.0 1.0 0.00 0.18 0.18 92 1007.1
20260507025302 54 339 0.0 2.0 0.00 0.18 0.18 92 1006.8
20260507024755 54 339 0.0 2.0 0.00 0.18 0.18 92 1006.8
20260507024256 54 218 0.0 1.0 0.00 0.18 0.18 92 1006.8
20260507023810 54 218 0.0 1.0 0.00 0.18 0.18 92 1006.8
20260507023304 54 218 0.0 1.0 0.00 0.18 0.18 92 1006.8
20260507022756 54 218 0.0 0.0 0.00 0.18 0.18 92 1006.8
20260507022308 54 218 0.0 0.0 0.00 0.18 0.18 91 1006.8
20260507021823 54 218 0.0 0.0 0.00 0.18 0.18 91 1006.8
20260507021256 54 218 0.0 1.0 0.00 0.18 0.18 91 1006.8
20260507020757 54 218 0.0 1.0 0.00 0.18 0.18 91 1006.5
20260507020313 55 217 0.0 1.0 0.00 0.18 0.18 91 1006.5
20260507015807 55 217 0.0 2.0 0.00 0.18 0.18 91 1006.5
20260507015306 55 360 0.0 1.0 0.00 0.18 0.18 91 1006.6
20260507014803 55 212 0.0 1.0 0.00 0.18 0.18 91 1006.6
20260507014256 55 212 0.0 6.0 0.00 0.18 0.18 91 1006.6
20260507013809 56 212 2.0 6.0 0.00 0.18 0.18 91 1006.1
20260507013304 56 225 2.0 4.0 0.00 0.18 0.18 92 1006.1
20260507012833 57 360 2.0 4.0 0.00 0.18 0.18 92 1006.1
20260507012310 57 360 0.0 1.0 0.00 0.18 0.18 93 1005.5
20260507011805 57 360 0.0 2.0 0.00 0.18 0.18 93 1005.5
20260507011301 57 360 1.0 2.0 0.01 0.18 0.18 93 1005.5
20260507010820 58 360 0.0 2.0 0.01 0.18 0.18 93 1005.5
20260507010309 58 360 0.0 4.0 0.05 0.18 0.18 93 1005.5
20260507005805 58 360 1.0 4.0 0.06 0.18 0.18 93 1005.5
20260507005259 59 229 1.0 4.0 0.06 0.18 0.18 93 1005.3
20260507004808 59 221 0.0 2.0 0.06 0.18 0.18 94 1005.3
20260507004300 59 221 0.0 1.0 0.06 0.18 0.18 94 1005.3
20260507003756 59 221 0.0 1.0 0.06 0.18 0.18 94 1005.0
20260507003252 59 221 0.0 1.0 0.06 0.18 0.18 94 1005.0
20260507002807 59 221 0.0 3.0 0.06 0.18 0.18 94 1005.0
20260507002301 60 221 1.0 3.0 0.06 0.18 0.18 94 1004.8
20260507001814 60 5 1.0 4.0 0.06 0.18 0.18 95 1004.8
20260507001314 60 232 1.0 5.0 0.05 0.17 0.17 95 1004.8
20260507000827 60 224 3.0 5.0 0.05 0.17 0.17 95 1004.2
20260507000259 60 275 2.0 5.0 0.00 0.12 0.12 94 1004.2
20260506235832 60 117 1.0 5.0 0.00 0.14 0.12 94 1004.2
20260506235306 60 311 1.0 5.0 0.00 0.14 0.12 94 1003.9
20260506234802 60 233 1.0 5.0 0.00 0.14 0.12 94 1003.9
20260506234301 60 312 1.0 4.0 0.00 0.14 0.12 94 1003.9
20260506233808 60 41 0.0 4.0 0.00 0.14 0.12 94 1003.8
20260506233258 60 32 1.0 4.0 0.00 0.14 0.12 94 1003.8
20260506232808 60 355 1.0 4.0 0.00 0.14 0.12 94 1003.8
20260506232311 60 260 1.0 4.0 0.00 0.14 0.12 94 1003.7
20260506231804 60 299 1.0 4.0 0.00 0.14 0.12 94 1003.7
20260506231300 60 290 2.0 4.0 0.00 0.14 0.12 94 1003.7
20260506230814 60 187 0.0 3.0 0.00 0.14 0.12 94 1003.7
20260506230325 60 63 0.0 2.0 0.00 0.14 0.12 94 1003.7
20260506225758 60 298 1.0 2.0 0.00 0.14 0.12 94 1003.7
20260506225257 60 298 0.0 8.0 0.00 0.14 0.12 94 1003.7
20260506224753 60 90 1.0 4.0 0.00 0.14 0.12 94 1003.7
20260506224310 60 257 1.0 4.0 0.00 0.14 0.12 94 1003.7
20260506223806 60 256 1.0 7.0 0.00 0.14 0.12 94 1003.7
20260506223300 60 222 2.0 7.0 0.00 0.14 0.12 94 1003.7
20260506222758 60 92 0.0 4.0 0.00 0.14 0.12 94 1003.7
20260506222254 60 327 1.0 4.0 0.00 0.14 0.12 94 1003.7
20260506221826 60 5 0.0 3.0 0.00 0.14 0.12 94 1003.7
20260506221256 60 360 1.0 8.0 0.00 0.14 0.12 94 1003.7
20260506220810 60 17 3.0 8.0 0.00 0.14 0.12 94 1003.7
20260506220302 60 287 0.0 3.0 0.00 0.14 0.12 94 1003.7
20260506215757 60 123 1.0 7.0 0.00 0.14 0.12 94 1003.7
20260506215312 60 49 2.0 7.0 0.00 0.14 0.12 94 1003.7
20260506214805 60 360 1.0 4.0 0.00 0.14 0.12 94 1003.7
20260506214301 60 360 2.0 5.0 0.00 0.14 0.12 94 1003.7
20260506213800 60 360 1.0 6.0 0.00 0.14 0.12 93 1003.7
20260506213311 60 360 3.0 6.0 0.00 0.14 0.12 93 1003.7
20260506212807 60 360 1.0 3.0 0.00 0.14 0.12 93 1003.7
20260506212307 60 360 1.0 6.0 0.00 0.14 0.12 93 1003.7
20260506211808 60 360 1.0 6.0 0.00 0.14 0.12 93 1003.7
20260506211303 60 360 1.0 7.0 0.00 0.14 0.12 93 1003.7
20260506210800 60 360 2.0 6.0 0.00 0.14 0.12 93 1003.7
20260506210307 60 360 2.0 6.0 0.00 0.14 0.12 93 1003.7
20260506205823 60 360 1.0 5.0 0.01 0.14 0.12 93 1003.7
20260506205257 60 360 1.0 4.0 0.01 0.14 0.12 93 1003.8
20260506204807 60 360 2.0 4.0 0.01 0.14 0.12 93 1003.8
20260506204303 60 360 0.0 4.0 0.01 0.14 0.12 93 1003.8
20260506203758 60 360 1.0 3.0 0.01 0.14 0.12 93 1004.1
20260506203257 60 360 0.0 6.0 0.01 0.14 0.12 92 1004.1
20260506202814 60 360 1.0 4.0 0.01 0.14 0.12 92 1004.1
20260506202310 60 360 1.0 4.0 0.01 0.14 0.12 92 1004.2
20260506201804 60 360 1.0 5.0 0.02 0.14 0.12 92 1004.2
20260506201300 60 360 1.0 4.0 0.02 0.14 0.12 92 1004.2
20260506200758 60 360 2.0 9.0 0.02 0.14 0.12 92 1004.5
20260506200306 61 360 2.0 9.0 0.01 0.13 0.11 92 1004.5
20260506195757 61 360 1.0 5.0 0.01 0.13 0.11 92 1004.5
20260506195310 61 360 1.0 7.0 0.01 0.13 0.11 91 1004.7
20260506194804 61 360 2.0 7.0 0.02 0.13 0.11 92 1004.7
20260506194258 61 360 2.0 4.0 0.02 0.13 0.11 92 1004.7
20260506193813 61 360 1.0 4.0 0.02 0.13 0.11 92 1004.7
20260506193300 61 360 1.0 5.0 0.02 0.13 0.11 91 1004.7
20260506192802 61 360 1.0 5.0 0.02 0.13 0.11 91 1004.7
20260506192314 61 360 1.0 5.0 0.02 0.12 0.10 91 1004.8
20260506191812 61 360 1.0 3.0 0.02 0.12 0.10 91 1004.8
20260506191301 62 360 1.0 3.0 0.02 0.12 0.10 91 1004.8
20260506190834 62 360 1.0 3.0 0.02 0.12 0.10 91 1004.7
20260506190300 62 360 2.0 3.0 0.03 0.12 0.10 90 1004.7
20260506185756 62 360 2.0 4.0 0.03 0.12 0.10 90 1004.7
20260506185312 62 360 0.0 5.0 0.03 0.12 0.10 90 1004.8
20260506184805 62 360 2.0 5.0 0.02 0.11 0.09 90 1004.8
20260506184259 62 360 1.0 4.0 0.03 0.11 0.09 90 1004.8
20260506183814 62 360 1.0 2.0 0.03 0.11 0.09 89 1005.1
20260506183307 63 360 1.0 2.0 0.04 0.11 0.09 89 1005.1
20260506182758 63 360 1.0 2.0 0.06 0.11 0.09 89 1005.1
20260506182321 63 360 1.0 3.0 0.06 0.10 0.08 89 1005.2
20260506181800 63 360 1.0 3.0 0.07 0.10 0.08 89 1005.2
20260506181313 63 360 1.0 3.0 0.07 0.10 0.08 89 1005.2
20260506180808 63 360 1.0 2.0 0.08 0.10 0.08 88 1005.2
20260506180255 63 360 0.0 2.0 0.07 0.09 0.07 88 1005.2
20260506175810 63 360 0.0 1.0 0.07 0.09 0.07 87 1005.2
20260506175306 63 360 0.0 1.0 0.07 0.09 0.07 87 1005.4
20260506174759 64 360 0.0 1.0 0.07 0.09 0.07 87 1005.4
20260506174330 64 360 0.0 1.0 0.06 0.08 0.06 86 1005.4
20260506173823 64 360 0.0 1.0 0.06 0.08 0.06 85 1005.8
20260506173259 64 360 0.0 1.0 0.05 0.07 0.05 85 1005.8
20260506172757 64 360 0.0 1.0 0.03 0.05 0.03 85 1005.8
20260506172312 64 360 0.0 2.0 0.02 0.04 0.02 85 1006.1
20260506171811 64 360 0.0 2.0 0.01 0.03 0.01 84 1006.1
20260506171305 64 360 0.0 1.0 0.01 0.03 0.01 83 1006.1
20260506170758 64 360 0.0 2.0 0.00 0.02 0.00 83 1006.2
20260506170308 64 360 0.0 3.0 0.00 0.02 0.00 82 1006.2
20260506165759 64 360 1.0 3.0 0.00 0.02 0.00 82 1006.2
20260506165256 64 360 0.0 2.0 0.00 0.02 0.00 81 1006.1
20260506164809 64 360 0.0 6.0 0.00 0.02 0.00 81 1006.1
20260506164304 64 360 1.0 6.0 0.00 0.02 0.00 81 1006.1
20260506163801 64 360 1.0 5.0 0.00 0.02 0.00 80 1006.2
20260506163259 64 360 1.0 8.0 0.00 0.02 0.00 80 1006.2
20260506162756 64 360 1.0 4.0 0.00 0.02 0.00 80 1006.2
20260506162307 65 360 1.0 4.0 0.00 0.02 0.00 80 1006.3
20260506161802 65 360 0.0 7.0 0.00 0.02 0.00 79 1006.3
20260506161300 65 360 2.0 7.0 0.00 0.02 0.00 79 1006.3
20260506160756 65 360 1.0 5.0 0.00 0.02 0.00 79 1006.3
20260506160303 65 360 1.0 4.0 0.00 0.02 0.00 79 1006.3
20260506155756 64 360 2.0 7.0 0.00 0.02 0.00 79 1006.3
20260506155307 64 360 2.0 7.0 0.00 0.02 0.00 79 1006.8
20260506154811 64 360 2.0 5.0 0.00 0.02 0.00 79 1006.8
20260506154307 64 360 1.0 5.0 0.00 0.02 0.00 79 1006.8
20260506153802 64 360 1.0 5.0 0.00 0.02 0.00 80 1006.9
20260506153301 64 360 2.0 5.0 0.00 0.02 0.00 80 1006.9
20260506152756 64 360 1.0 5.0 0.00 0.02 0.00 80 1006.9
20260506152307 64 360 1.0 4.0 0.00 0.02 0.00 80 1007.4
20260506151759 64 360 1.0 6.0 0.00 0.02 0.00 80 1007.4
20260506151312 63 360 3.0 6.0 0.00 0.02 0.00 80 1007.4
20260506150807 63 360 2.0 5.0 0.00 0.02 0.00 81 1007.2
20260506150304 63 360 2.0 5.0 0.00 0.02 0.00 81 1007.2
20260506145759 63 360 2.0 5.0 0.00 0.02 0.00 81 1007.2
20260506145313 63 360 1.0 7.0 0.00 0.02 0.00 80 1007.3
20260506144808 63 360 2.0 7.0 0.00 0.02 0.00 80 1007.3
20260506144301 63 360 1.0 3.0 0.00 0.02 0.00 80 1007.3
20260506143756 63 360 1.0 5.0 0.00 0.02 0.00 80 1007.4
20260506143256 63 360 2.0 6.0 0.00 0.02 0.00 80 1007.4
20260506142756 63 360 2.0 6.0 0.00 0.02 0.00 81 1007.4
20260506142306 63 360 2.0 6.0 0.00 0.02 0.00 81 1007.1
20260506141759 63 360 2.0 6.0 0.00 0.02 0.00 81 1007.1
20260506141259 63 360 2.0 6.0 0.00 0.02 0.00 81 1007.1
20260506140819 63 360 2.0 9.0 0.00 0.02 0.00 82 1007.3
20260506140255 63 360 3.0 9.0 0.00 0.02 0.00 82 1007.3
20260506135812 62 360 3.0 6.0 0.00 0.02 0.00 82 1007.3
20260506135306 62 360 2.0 6.0 0.00 0.02 0.00 83 1007.0
20260506134801 62 360 2.0 4.0 0.00 0.02 0.00 84 1007.0
20260506134254 62 360 1.0 6.0 0.00 0.02 0.00 84 1007.0
20260506133812 61 360 2.0 6.0 0.00 0.02 0.00 84 1006.9
20260506133304 61 360 1.0 6.0 0.00 0.02 0.00 84 1006.9
20260506132822 61 360 1.0 6.0 0.00 0.02 0.00 85 1006.9
20260506132256 61 360 1.0 3.0 0.00 0.02 0.00 85 1007.3
20260506131810 61 360 2.0 5.0 0.00 0.02 0.00 85 1007.3
20260506131302 60 360 2.0 5.0 0.00 0.02 0.00 85 1007.3
20260506130804 60 360 1.0 4.0 0.00 0.02 0.00 86 1007.5
20260506130255 60 360 1.0 4.0 0.00 0.02 0.00 86 1007.5
20260506125812 60 360 2.0 4.0 0.00 0.02 0.00 86 1007.5
20260506125309 60 360 1.0 4.0 0.00 0.02 0.00 86 1007.8
20260506124805 60 360 1.0 4.0 0.00 0.02 0.00 86 1007.8
20260506124253 60 360 1.0 2.0 0.00 0.02 0.00 86 1007.8
20260506123811 60 360 1.0 4.0 0.00 0.02 0.00 86 1007.8
20260506123309 59 360 1.0 6.0 0.00 0.02 0.00 86 1007.8
20260506122809 59 360 1.0 6.0 0.00 0.02 0.00 87 1007.8
20260506122306 59 360 1.0 5.0 0.00 0.02 0.00 87 1007.8
20260506121759 59 360 2.0 5.0 0.00 0.02 0.00 87 1007.8
20260506121255 59 360 1.0 5.0 0.00 0.02 0.00 87 1007.8
20260506120812 59 360 1.0 5.0 0.00 0.02 0.00 87 1007.8
20260506120301 59 360 1.0 6.0 0.00 0.02 0.00 88 1007.8